Zurück zum Katalog

STARLINK-6155

AktivKommunikationVLEO
NORAD 57076·PAYLOAD·🇺🇸 United States

Gestartet Jun 22, 2023 von Vandenberg Space Force Base

Loading…

Nächste Überflüge (nächste 24 Stunden)

TLE

AktuellSource: CelesTrak SupGP

Epoche: Sep 15, 2026, 01:10 UTC

1 57076C 23088AE  26258.04909722  .00061210  00000+0  22169-2 0  2581
2 57076  43.0007 106.9603 0001095 264.4699 243.9339 15.27550810    19

Verfolge STARLINK-6155 in Echtzeit mit AllMySat

Download on the App Store